• In Russia
  • List of Countries
  • For 7 days
  • Water Temperature
  • Satellite Maps
  • Weather Map
  • Weather Widgets
  • user-avatar
    Login

    Hourly Weather Dushanbe

    Today, 23 January, Tuesday

    Time Temperature Precipitation Wind Pressure Humidity
    00:00 +4°C° 0 mm 0 mps 688 mmHg 54%
    01:00 +3°C° 0 mm 0 mps 688 mmHg 54%
    02:00 +4°C° 0 mm 1 mps 688 mmHg 54%
    03:00 +4°C° 0 mm 1 mps 688 mmHg 53%
    04:00 +4°C° 0 mm 1 mps 688 mmHg 53%
    05:00 +4°C° 0 mm 1 mps 687 mmHg 51%
    06:00 +4°C° 0 mm 1 mps 687 mmHg 50%
    07:00 +3°C° 0 mm 1 mps 687 mmHg 49%
    08:00 +3°C° 0 mm 1 mps 687 mmHg 48%
    09:00 +5°C° 0 mm 1 mps 688 mmHg 45%
    10:00 +7°C° 0 mm 1 mps 688 mmHg 41%
    11:00 +10°C° 0 mm 1 mps 687 mmHg 38%
    12:00 +10°C° 0 mm 1 mps 687 mmHg 38%
    13:00 +11°C° 0 mm 1 mps 687 mmHg 37%
    14:00 +11°C° 0 mm 1 mps 687 mmHg 37%
    15:00 +10°C° 0 mm 1 mps 686 mmHg 39%
    16:00 +10°C° 0 mm 1 mps 686 mmHg 41%
    17:00 +9°C° 0 mm 1 mps 686 mmHg 43%
    18:00 +8°C° 0 mm 1 mps 686 mmHg 43%
    19:00 +6°C° 0 mm 2 mps 686 mmHg 43%
    20:00 +5°C° 0 mm 2 mps 686 mmHg 44%
    21:00 +5°C° 0 mm 2 mps 686 mmHg 42%
    22:00 +5°C° 0 mm 2 mps 685 mmHg 40%
    23:00 +4°C° 0 mm 3 mps 685 mmHg 38%

    Tomorrow, 24 January, Wednesday

    Time Temperature Precipitation Wind Pressure Humidity
    00:00 +4°C° 0 mm 3 mps 685 mmHg 38%
    01:00 +4°C° 0 mm 3 mps 685 mmHg 37%
    02:00 +4°C° 0 mm 3 mps 685 mmHg 36%
    03:00 +4°C° 0 mm 3 mps 685 mmHg 36%
    04:00 +4°C° 0 mm 3 mps 685 mmHg 36%
    05:00 +4°C° 0 mm 3 mps 685 mmHg 35%
    06:00 +5°C° 0 mm 2 mps 685 mmHg 35%
    07:00 +5°C° 0 mm 2 mps 685 mmHg 35%
    08:00 +5°C° 0 mm 2 mps 685 mmHg 35%
    09:00 +7°C° 0 mm 2 mps 685 mmHg 33%
    10:00 +9°C° 0 mm 2 mps 686 mmHg 32%
    11:00 +12°C° 0 mm 2 mps 686 mmHg 30%
    12:00 +12°C° 0 mm 2 mps 686 mmHg 29%
    13:00 +13°C° 0 mm 2 mps 686 mmHg 28%
    14:00 +13°C° 0 mm 2 mps 686 mmHg 27%
    15:00 +13°C° 0 mm 2 mps 686 mmHg 29%
    16:00 +12°C° 0 mm 2 mps 686 mmHg 31%
    17:00 +10°C° 0 mm 2 mps 686 mmHg 34%
    18:00 +9°C° 0 mm 2 mps 686 mmHg 34%
    19:00 +8°C° 0 mm 2 mps 686 mmHg 35%
    20:00 +7°C° 0 mm 2 mps 687 mmHg 36%
    21:00 +7°C° 0 mm 2 mps 687 mmHg 36%
    22:00 +7°C° 0 mm 2 mps 687 mmHg 36%
    23:00 +7°C° 0 mm 2 mps 687 mmHg 36%

    Day after tomorrow, 25 January, Thursday

    Time Temperature Precipitation Wind Pressure Humidity
    00:00 +6°C° 0 mm 2 mps 687 mmHg 36%
    01:00 +6°C° 0 mm 2 mps 687 mmHg 37%
    02:00 +5°C° 0 mm 3 mps 687 mmHg 37%
    03:00 +6°C° 0 mm 2 mps 687 mmHg 38%
    04:00 +6°C° 0 mm 2 mps 687 mmHg 39%
    05:00 +5°C° 0 mm 2 mps 687 mmHg 40%
    06:00 +5°C° 0 mm 2 mps 688 mmHg 42%
    07:00 +5°C° 0 mm 2 mps 688 mmHg 43%
    08:00 +5°C° 0 mm 2 mps 688 mmHg 45%
    09:00 +6°C° 0 mm 2 mps 689 mmHg 44%
    10:00 +8°C° 0 mm 2 mps 690 mmHg 43%
    11:00 +9°C° 0 mm 2 mps 690 mmHg 42%
    12:00 +9°C° 0.1 mm 2 mps 690 mmHg 41%
    13:00 +9°C° 0.1 mm 2 mps 690 mmHg 41%
    14:00 +10°C° 0.1 mm 2 mps 690 mmHg 40%
    15:00 +9°C° 0.1 mm 2 mps 690 mmHg 42%
    16:00 +9°C° 0.1 mm 2 mps 690 mmHg 44%
    17:00 +8°C° 0.1 mm 2 mps 690 mmHg 46%
    18:00 +7°C° 0 mm 2 mps 690 mmHg 49%
    19:00 +6°C° 0 mm 2 mps 690 mmHg 51%
    20:00 +6°C° 0 mm 1 mps 690 mmHg 53%
    21:00 +4°C° 0 mm 2 mps 690 mmHg 54%
    22:00 +4°C° 0 mm 2 mps 690 mmHg 55%
    23:00 +4°C° 0 mm 2 mps 690 mmHg 57%

    26 January, Friday

    Time Temperature Precipitation Wind Pressure Humidity
    00:00 +4°C° 0 mm 2 mps 690 mmHg 58%
    01:00 +3°C° 0 mm 2 mps 690 mmHg 59%
    02:00 +3°C° 0 mm 2 mps 690 mmHg 60%
    03:00 +3°C° 0 mm 2 mps 690 mmHg 60%
    04:00 +3°C° 0 mm 2 mps 690 mmHg 60%
    05:00 +2°C° 0 mm 2 mps 690 mmHg 61%
    06:00 +2°C° 0 mm 2 mps 691 mmHg 60%
    07:00 +2°C° 0 mm 2 mps 691 mmHg 60%
    08:00 +2°C° 0 mm 2 mps 691 mmHg 60%
    09:00 +4°C° 0 mm 2 mps 691 mmHg 56%
    10:00 +5°C° 0 mm 2 mps 691 mmHg 53%
    11:00 +7°C° 0 mm 2 mps 692 mmHg 49%
    12:00 +8°C° 0 mm 2 mps 691 mmHg 48%
    13:00 +8°C° 0 mm 2 mps 691 mmHg 46%
    14:00 +9°C° 0 mm 2 mps 690 mmHg 45%
    15:00 +8°C° 0 mm 2 mps 690 mmHg 46%
    16:00 +9°C° 0 mm 1 mps 690 mmHg 47%
    17:00 +8°C° 0 mm 1 mps 690 mmHg 48%
    18:00 +7°C° 0 mm 1 mps 690 mmHg 50%
    19:00 +5°C° 0 mm 2 mps 690 mmHg 53%
    20:00 +4°C° 0 mm 2 mps 690 mmHg 55%
    21:00 +4°C° 0 mm 2 mps 690 mmHg 55%
    22:00 +4°C° 0 mm 2 mps 689 mmHg 54%
    23:00 +3°C° 0 mm 2 mps 689 mmHg 54%

    27 January, Saturday

    Time Temperature Precipitation Wind Pressure Humidity
    00:00 +3°C° 0 mm 2 mps 689 mmHg 54%
    01:00 +3°C° 0 mm 2 mps 689 mmHg 54%
    02:00 +3°C° 0 mm 2 mps 689 mmHg 54%
    03:00 +3°C° 0 mm 2 mps 689 mmHg 54%
    04:00 +2°C° 0 mm 2 mps 689 mmHg 54%
    05:00 +2°C° 0 mm 2 mps 688 mmHg 55%
    06:00 +2°C° 0 mm 2 mps 688 mmHg 54%
    07:00 +2°C° 0 mm 2 mps 689 mmHg 54%
    08:00 +1°C° 0 mm 2 mps 689 mmHg 54%
    09:00 +3°C° 0 mm 2 mps 689 mmHg 51%
    10:00 +5°C° 0 mm 2 mps 689 mmHg 48%
    11:00 +7°C° 0 mm 2 mps 689 mmHg 45%
    12:00 +7°C° 0 mm 2 mps 689 mmHg 44%
    13:00 +8°C° 0 mm 2 mps 689 mmHg 43%
    14:00 +8°C° 0 mm 2 mps 689 mmHg 42%
    15:00 +8°C° 0 mm 2 mps 688 mmHg 44%
    16:00 +7°C° 0 mm 2 mps 688 mmHg 45%
    17:00 +7°C° 0 mm 2 mps 688 mmHg 46%
    18:00 +5°C° 0 mm 2 mps 688 mmHg 49%
    19:00 +4°C° 0 mm 2 mps 688 mmHg 51%
    20:00 +3°C° 0 mm 2 mps 689 mmHg 53%
    21:00 +3°C° 0 mm 2 mps 689 mmHg 54%
    22:00 +2°C° 0 mm 2 mps 688 mmHg 54%
    23:00 +2°C° 0 mm 2 mps 688 mmHg 55%

    28 January, Sunday

    Time Temperature Precipitation Wind Pressure Humidity
    00:00 +2°C° 0 mm 2 mps 688 mmHg 55%
    01:00 +2°C° 0 mm 2 mps 688 mmHg 56%
    02:00 +2°C° 0 mm 2 mps 688 mmHg 56%
    03:00 +1°C° 0 mm 2 mps 688 mmHg 56%
    04:00 +1°C° 0 mm 2 mps 688 mmHg 56%
    05:00 +1°C° 0 mm 2 mps 687 mmHg 56%
    06:00 +1°C° 0 mm 2 mps 688 mmHg 55%
    07:00 0°C° 0 mm 3 mps 688 mmHg 55%
    08:00 0°C° 0 mm 3 mps 688 mmHg 54%
    09:00 +2°C° 0 mm 3 mps 688 mmHg 51%
    10:00 +4°C° 0 mm 3 mps 688 mmHg 48%
    11:00 +7°C° 0 mm 3 mps 689 mmHg 44%
    12:00 +8°C° 0 mm 3 mps 688 mmHg 43%
    13:00 +8°C° 0 mm 3 mps 687 mmHg 41%
    14:00 +9°C° 0 mm 3 mps 687 mmHg 40%
    15:00 +8°C° 0 mm 2 mps 687 mmHg 41%
    16:00 +8°C° 0 mm 2 mps 686 mmHg 43%
    17:00 +7°C° 0 mm 2 mps 686 mmHg 45%
    18:00 +7°C° 0 mm 2 mps 686 mmHg 46%
    19:00 +6°C° 0 mm 2 mps 686 mmHg 47%
    20:00 +5°C° 0 mm 2 mps 686 mmHg 48%
    21:00 +5°C° 0.1 mm 2 mps 686 mmHg 49%
    22:00 +5°C° 0.1 mm 2 mps 685 mmHg 50%
    23:00 +5°C° 0.1 mm 2 mps 685 mmHg 51%
    Show more